User: anonymous   Login
Location: Summit Observatory
(39.5293°N, 75.7290°W)
Time: 14:47:39
(UTC-04:00)
Language:

Gurwin Techsat 1B - Orbit

View from above orbital plane
View from above orbital plane
View from above satellite
View from above satellite

Ground track
Ground track

The orbit data is extracted from the following two-line orbital elements,

1 25397U 98043D   16146.43876951  .00000001  00000-0  19176-4 0  9990
2 25397  98.5656  91.9728 0002327  66.5615 293.5808 14.23594345928628
Epoch (UTC): 25 May 2016 10:31:49
Eccentricity: 0.0002327
inclination: 98.5656°
perigee height: 811 km
apogee height: 815 km
right ascension of ascending node: 91.9728°
argument of perigee: 66.5615°
revolutions per day: 14.23594345
mean anomaly at epoch: 293.5808°
orbit number at epoch: 92862

The dashed part of the orbit path shows where the satellite is in the earth's shadow,  

DLR